| time (UTC) | temp C | wind direction | speed KPH | gust KPH | rain 1hr cm | rain 24hr cm | rain mn cm | humidity % | barometer mb |
| 20260502193055 | 17 | 272 | 16.1 | 25.7 | 0.00 | 0.00 | 0.00 | 41 | 1011.6 |
| 20260502191559 | 16 | 260 | 9.7 | 20.9 | 0.00 | 0.00 | 0.00 | 43 | 1011.7 |
| 20260502190106 | 16 | 269 | 16.1 | 30.6 | 0.00 | 0.00 | 0.00 | 42 | 1012.2 |
| 20260502184559 | 16 | 252 | 19.3 | 29.0 | 0.00 | 0.00 | 0.00 | 42 | 1012.5 |
| 20260502183109 | 16 | 265 | 16.1 | 27.4 | 0.00 | 0.00 | 0.00 | 41 | 1012.8 |
| 20260502181609 | 16 | 274 | 9.7 | 25.7 | 0.00 | 0.00 | 0.00 | 41 | 1013.1 |
| 20260502163105 | 12 | 271 | 9.7 | 25.7 | 0.00 | 0.00 | 0.00 | 47 | 1014.8 |
| 20260502161611 | 12 | 276 | 12.9 | 25.7 | 0.00 | 0.00 | 0.00 | 47 | 1015.0 |
| 20260502151605 | 10 | 229 | 6.4 | 22.5 | 0.00 | 0.00 | 0.00 | 52 | 1016.1 |
| 20260502123053 | 1 | 0 | 0.0 | 0.0 | 0.00 | 0.00 | 0.00 | 81 | 1017.5 |
| 20260502121557 | 1 | 0 | 0.0 | 0.0 | 0.00 | 0.00 | 0.00 | 79 | 1017.5 |
| 20260502114554 | 0 | 0 | 0.0 | 0.0 | 0.00 | 0.00 | 0.00 | 83 | 1017.5 |
| 20260502113058 | 0 | 0 | 0.0 | 0.0 | 0.00 | 0.00 | 0.00 | 85 | 1017.6 |
| 20260502111605 | 0 | 0 | 0.0 | 0.0 | 0.00 | 0.00 | 0.00 | 83 | 1017.7 |
| 20260502110059 | 0 | 0 | 0.0 | 0.0 | 0.00 | 0.00 | 0.00 | 80 | 1017.6 |
| 20260502104558 | 0 | 0 | 0.0 | 0.0 | 0.00 | 0.00 | 0.00 | 78 | 1017.5 |
| 20260502103106 | 0 | 0 | 0.0 | 0.0 | 0.00 | 0.00 | 0.00 | 78 | 1017.7 |
| 20260502101557 | 0 | 0 | 0.0 | 0.0 | 0.00 | 0.00 | 0.00 | 77 | 1017.6 |
| 20260502100103 | 0 | 0 | 0.0 | 0.0 | 0.00 | 0.00 | 0.00 | 81 | 1017.8 |
| 20260502090111 | 0 | 0 | 0.0 | 0.0 | 0.00 | 0.00 | 0.00 | 87 | 1017.8 |
| 20260502070104 | 2 | 0 | 0.0 | 0.0 | 0.00 | 0.00 | 0.00 | 78 | 1018.2 |
| 20260502064601 | 3 | 0 | 0.0 | 0.0 | 0.00 | 0.00 | 0.00 | 74 | 1018.3 |
| 20260502063058 | 3 | 0 | 0.0 | 0.0 | 0.00 | 0.00 | 0.00 | 69 | 1018.3 |
| 20260502061558 | 3 | 0 | 0.0 | 0.0 | 0.00 | 0.00 | 0.00 | 70 | 1018.2 |
| 20260502060056 | 3 | 0 | 0.0 | 0.0 | 0.00 | 0.00 | 0.00 | 80 | 1018.2 |
| 20260502054553 | 3 | 0 | 0.0 | 0.0 | 0.00 | 0.00 | 0.00 | 78 | 1018.1 |
| 20260502053129 | 4 | 0 | 0.0 | 0.0 | 0.00 | 0.00 | 0.00 | 70 | 1018.2 |
| 20260502051606 | 3 | 0 | 0.0 | 0.0 | 0.00 | 0.00 | 0.00 | 63 | 1018.2 |
| 20260502050056 | 4 | 0 | 0.0 | 0.0 | 0.00 | 0.00 | 0.00 | 66 | 1018.2 |
| 20260502044556 | 5 | 0 | 0.0 | 0.0 | 0.00 | 0.00 | 0.00 | 70 | 1018.3 |
| 20260502043109 | 5 | 0 | 0.0 | 0.0 | 0.00 | 0.00 | 0.00 | 58 | 1018.3 |
| 20260502041621 | 4 | 0 | 0.0 | 0.0 | 0.00 | 0.00 | 0.00 | 61 | 1018.4 |
| 20260502040053 | 5 | 0 | 0.0 | 0.0 | 0.00 | 0.00 | 0.00 | 65 | 1018.4 |
| 20260502034553 | 5 | 0 | 0.0 | 1.6 | 0.00 | 0.00 | 0.00 | 64 | 1018.5 |
| 20260502033105 | 5 | 0 | 0.0 | 0.0 | 0.00 | 0.00 | 0.00 | 67 | 1018.5 |
| 20260502031552 | 5 | 0 | 0.0 | 1.6 | 0.00 | 0.00 | 0.00 | 54 | 1018.4 |
| 20260502030059 | 6 | 78 | 1.6 | 1.6 | 0.00 | 0.00 | 0.00 | 54 | 1018.3 |
| 20260502024556 | 6 | 0 | 0.0 | 0.0 | 0.00 | 0.00 | 0.00 | 52 | 1018.2 |
| 20260502023059 | 7 | 0 | 0.0 | 0.0 | 0.00 | 0.00 | 0.00 | 51 | 1018.0 |
| 20260502021552 | 7 | 0 | 0.0 | 1.6 | 0.00 | 0.00 | 0.00 | 49 | 1018.0 |
| 20260502020059 | 8 | 79 | 0.0 | 3.2 | 0.00 | 0.00 | 0.00 | 50 | 1017.8 |
| 20260502014553 | 8 | 0 | 0.0 | 0.0 | 0.00 | 0.00 | 0.00 | 39 | 1017.7 |
| 20260502013052 | 10 | 0 | 0.0 | 0.0 | 0.00 | 0.00 | 0.00 | 39 | 1017.7 |
| 20260502011553 | 10 | 0 | 0.0 | 0.0 | 0.00 | 0.00 | 0.00 | 40 | 1017.6 |
| 20260502010058 | 11 | 81 | 0.0 | 4.8 | 0.00 | 0.00 | 0.00 | 35 | 1017.6 |
| 20260502004552 | 11 | 63 | 1.6 | 8.0 | 0.00 | 0.00 | 0.00 | 34 | 1017.4 |
| 20260502003053 | 12 | 316 | 1.6 | 4.8 | 0.00 | 0.00 | 0.00 | 35 | 1017.3 |
| 20260502001601 | 11 | 0 | 1.6 | 4.8 | 0.00 | 0.00 | 0.00 | 36 | 1017.2 |
| 20260502000054 | 11 | 297 | 1.6 | 3.2 | 0.00 | 0.00 | 0.00 | 36 | 1017.3 |
| 20260501234551 | 11 | 309 | 0.0 | 1.6 | 0.00 | 0.00 | 0.00 | 35 | 1017.4 |
| 20260501233105 | 11 | 0 | 0.0 | 8.0 | 0.00 | 0.00 | 0.00 | 34 | 1017.4 |
| 20260501231602 | 12 | 284 | 0.0 | 6.4 | 0.00 | 0.00 | 0.00 | 34 | 1017.3 |
| 20260501230053 | 12 | 88 | 0.0 | 4.8 | 0.00 | 0.00 | 0.00 | 33 | 1017.5 |
| 20260501224552 | 12 | 349 | 1.6 | 9.7 | 0.00 | 0.00 | 0.00 | 33 | 1017.6 |
| 20260501223112 | 12 | 64 | 0.0 | 4.8 | 0.00 | 0.00 | 0.00 | 34 | 1017.5 |
| 20260501221552 | 11 | 0 | 1.6 | 8.0 | 0.00 | 0.00 | 0.00 | 34 | 1017.7 |
| 20260501220054 | 11 | 305 | 1.6 | 8.0 | 0.00 | 0.00 | 0.00 | 34 | 1017.6 |
| 20260501214556 | 11 | 97 | 0.0 | 6.4 | 0.00 | 0.00 | 0.00 | 34 | 1017.7 |
| 20260501213055 | 11 | 75 | 1.6 | 6.4 | 0.00 | 0.00 | 0.00 | 33 | 1017.8 |
| 20260501211554 | 11 | 0 | 1.6 | 6.4 | 0.00 | 0.00 | 0.00 | 34 | 1017.9 |
| 20260501210051 | 12 | 0 | 1.6 | 9.7 | 0.00 | 0.00 | 0.00 | 34 | 1018.0 |
| 20260501204631 | 11 | 302 | 3.2 | 22.5 | 0.00 | 0.00 | 0.00 | 39 | 1018.1 |
| 20260501203058 | 11 | 307 | 3.2 | 4.8 | 0.00 | 0.00 | 0.00 | 36 | 1018.3 |
| 20260501201608 | 10 | 276 | 3.2 | 9.7 | 0.00 | 0.00 | 0.00 | 36 | 1018.3 |
| 20260501200059 | 11 | 304 | 3.2 | 9.7 | 0.00 | 0.00 | 0.00 | 35 | 1018.5 |
| 20260501194556 | 11 | 33 | 3.2 | 8.0 | 0.00 | 0.00 | 0.00 | 35 | 1018.4 |